Regional Weather Roundup
Issued by NWS

Home | Current Version | Previous Version | Text Only | Print | Product List | Glossary Off
Versions: 1 2 3 4 5 6 7 8 9 10 11 12 13 14 15 16 17 18 19 20 21 22 23 24 25 26 27 28 29 30 31 32 33 34 35 36 37 38 39 40 41 42 43 44 45 46 47 48 49 50

000
ASUS43 KLMK 260110
RWRKY
KENTUCKY REGIONAL WEATHER ROUNDUP
NATIONAL WEATHER SERVICE LOUISVILLE KY
900 PM EDT SAT APR 25 2015

NOTE "FAIR" INDICATES FEW OR NO CLOUDS BELOW 12,000 FEET
WITH NO SIGNIFICANT WEATHER AND/OR OBSTRUCTIONS TO VISIBILITY.

KYZ001>023-026-027-061>063-070>075-260200-
WESTERN AND SOUTH CENTRAL KENTUCKY

CITY           SKY/WX    TMP DP  RH WIND       PRES   REMARKS
PADUCAH        PTCLDY    62  58  86 N5        29.55R
HENDERSON      MOCLDY    61  57  88 NW3       29.53R
OWENSBORO      CLOUDY    59  58  96 E7        29.53R
HOPKINSVILLE   PTCLDY    73  58  59 SW10      29.49R
BOWLING GREEN  CLOUDY    70  55  59 NW18G35   29.53R
GLASGOW        LGT RAIN  71  54  54 W22G35    29.51R
$$

KYZ024-025-028>034-038-045-046-053-260200-
NORTH CENTRAL KENTUCKY

CITY           SKY/WX    TMP DP  RH WIND       PRES   REMARKS
LOUISVILLE/SDF LGT RAIN  51  48  89 NE10      29.57R
LOUISVILLE/LOU LGT RAIN  50  48  93 NE8       29.57S
FORT KNOX      LGT RAIN  52  51  95 NE10      29.52R
$$

KYZ035>037-039>044-047>052-055>060-089>105-260200-
NORTHEAST KENTUCKY

CITY           SKY/WX    TMP DP  RH WIND       PRES   REMARKS
LEXINGTON      RAIN      48  46  93 NE13      29.54F FOG
COVINGTON      CLOUDY    45  44  97 E18G24    29.60F
FRANKFORT      HVY RAIN  47  45  93 NE10      29.56R FOG
$$

KYZ054-064>069-076>088-106>120-260200-
SOUTHEAST KENTUCKY

CITY           SKY/WX    TMP DP  RH WIND       PRES   REMARKS
JACKSON        CLOUDY    50  49  96 VRB3      29.58R FOG
LONDON         PTCLDY    73  49  42 CALM      29.49R
SOMERSET       CLOUDY    70  54  56 SW5       29.48R
MIDDLESBORO    CLEAR     69  62  78 CALM      29.53R
MONTICELLO     CLEAR     71  57  61 SW8       29.50R
$$



USA.gov is the U.S. government's official web portal to all federal, state and local government web resources and services.